Time,TemperatureF,DewpointF,PressureIn,WindDirection,WindDirectionDegrees,WindSpeedMPH,WindSpeedGustMPH,Humidity,HourlyPrecipIn,Conditions,Clouds,dailyrainin,SoftwareType,DateUTC
2013-07-21 00:01:00,74.0,61.0,29.40,North,-999,0.0,0.0,64,0.00,,,-99.99,,2013-07-21 07:01:00,
2013-07-21 00:11:00,74.0,61.0,29.40,North,-999,0.0,0.0,64,0.00,,,-99.99,,2013-07-21 07:11:00,
2013-07-21 00:22:00,74.0,63.0,29.40,North,-999,0.0,0.0,68,0.00,,,-99.99,,2013-07-21 07:22:00,
2013-07-21 00:32:00,74.0,63.0,29.40,North,-999,0.0,0.0,68,0.00,,,-99.99,,2013-07-21 07:32:00,
2013-07-21 00:43:00,74.0,61.0,29.40,North,-999,0.0,0.0,64,0.00,,,-99.99,,2013-07-21 07:43:00,
2013-07-21 00:53:00,72.0,60.0,29.40,North,-999,0.0,0.0,65,0.00,,,-99.99,,2013-07-21 07:53:00,
2013-07-21 01:01:00,72.0,60.0,29.40,North,-999,0.0,0.0,65,0.00,,,-99.99,,2013-07-21 08:01:00,
2013-07-21 01:11:00,70.0,59.0,29.40,North,0,0.0,1.0,68,0.00,,,-99.99,,2013-07-21 08:11:00,
2013-07-21 01:22:00,70.0,59.0,29.40,North,-999,0.0,0.0,69,0.00,,,-99.99,,2013-07-21 08:22:00,
2013-07-21 01:32:00,70.0,59.0,29.40,North,-999,0.0,0.0,69,0.00,,,-99.99,,2013-07-21 08:32:00,
2013-07-21 01:43:00,71.0,60.0,29.40,North,-999,0.0,0.0,68,0.00,,,-99.99,,2013-07-21 08:43:00,
2013-07-21 01:52:00,70.0,60.0,29.39,North,-999,0.0,0.0,70,0.00,,,-99.99,,2013-07-21 08:52:00,
2013-07-21 02:02:00,70.0,60.0,29.39,North,-999,0.0,0.0,70,0.00,,,-99.99,,2013-07-21 09:02:00,
2013-07-21 02:11:00,68.0,59.0,29.40,North,-999,0.0,0.0,72,0.00,,,-99.99,,2013-07-21 09:11:00,
2013-07-21 02:22:00,67.0,59.0,29.40,North,-999,0.0,0.0,75,0.00,,,-99.99,,2013-07-21 09:22:00,
2013-07-21 02:32:00,67.0,59.0,29.40,North,-999,0.0,0.0,75,0.00,,,-99.99,,2013-07-21 09:32:00,
2013-07-21 02:52:00,68.0,59.0,29.40,North,-999,0.0,0.0,74,0.00,,,-99.99,,2013-07-21 09:52:00,
2013-07-21 03:01:00,68.0,59.0,29.40,North,-999,0.0,0.0,74,0.00,,,-99.99,,2013-07-21 10:01:00,
2013-07-21 03:22:00,67.0,59.0,29.39,North,-999,0.0,0.0,76,0.00,,,-99.99,,2013-07-21 10:22:00,
2013-07-21 03:32:00,67.0,59.0,29.39,North,-999,0.0,0.0,76,0.00,,,-99.99,,2013-07-21 10:32:00,
2013-07-21 03:43:00,67.0,59.0,29.40,North,-999,0.0,0.0,76,0.00,,,-99.99,,2013-07-21 10:43:00,
2013-07-21 03:52:00,67.0,60.0,29.39,North,-999,0.0,0.0,77,0.00,,,-99.99,,2013-07-21 10:52:00,
2013-07-21 04:02:00,67.0,60.0,29.39,North,-999,0.0,0.0,77,0.00,,,-99.99,,2013-07-21 11:02:00,
2013-07-21 04:11:00,67.0,59.0,29.39,North,0,0.0,1.0,76,0.00,,,-99.99,,2013-07-21 11:11:00,
2013-07-21 04:22:00,68.0,59.0,29.39,North,-999,0.0,0.0,74,0.00,,,-99.99,,2013-07-21 11:22:00,
2013-07-21 04:32:00,68.0,59.0,29.39,North,-999,0.0,0.0,74,0.00,,,-99.99,,2013-07-21 11:32:00,
2013-07-21 04:52:00,66.0,59.0,29.39,North,-999,0.0,0.0,77,0.00,,,-99.99,,2013-07-21 11:52:00,
2013-07-21 05:01:00,66.0,59.0,29.39,North,-999,0.0,0.0,77,0.00,,,-99.99,,2013-07-21 12:01:00,
2013-07-21 05:22:00,68.0,60.0,29.39,North,-999,0.0,0.0,75,0.00,,,-99.99,,2013-07-21 12:22:00,
2013-07-21 05:32:00,68.0,60.0,29.39,North,-999,0.0,0.0,75,0.00,,,-99.99,,2013-07-21 12:32:00,
2013-07-21 05:53:00,69.0,60.0,29.40,North,-999,0.0,0.0,72,0.00,,,-99.99,,2013-07-21 12:53:00,
2013-07-21 06:01:00,69.0,60.0,29.40,North,-999,0.0,0.0,72,0.00,,,-99.99,,2013-07-21 13:01:00,
2013-07-21 06:11:00,69.0,60.0,29.40,North,-999,0.0,0.0,72,0.00,,,-99.99,,2013-07-21 13:11:00,
2013-07-21 06:22:00,68.0,59.0,29.41,North,-999,0.0,0.0,74,0.00,,,-99.99,,2013-07-21 13:22:00,
2013-07-21 06:32:00,68.0,59.0,29.41,North,-999,0.0,0.0,74,0.00,,,-99.99,,2013-07-21 13:32:00,
2013-07-21 06:42:00,68.0,60.0,29.41,North,0,0.0,2.0,75,0.00,,,-99.99,,2013-07-21 13:42:00,
2013-07-21 07:01:00,69.0,60.0,29.40,NE,50,1.0,1.0,72,0.00,,,-99.99,,2013-07-21 14:01:00,
2013-07-21 07:11:00,69.0,60.0,29.40,NE,50,1.0,1.0,72,0.00,,,-99.99,,2013-07-21 14:11:00,
2013-07-21 07:32:00,71.0,61.0,29.39,NE,50,3.0,3.0,71,0.00,,,-99.99,,2013-07-21 14:32:00,
2013-07-21 07:43:00,72.0,62.0,29.39,North,0,0.0,3.0,71,0.00,,,-99.99,,2013-07-21 14:43:00,
2013-07-21 07:53:00,74.0,62.0,29.39,North,-999,0.0,0.0,67,0.00,,,-99.99,,2013-07-21 14:53:00,
2013-07-21 08:02:00,74.0,62.0,29.39,North,-999,0.0,0.0,67,0.00,,,-99.99,,2013-07-21 15:02:00,
2013-07-21 08:11:00,74.0,62.0,29.39,North,-999,0.0,0.0,67,0.00,,,-99.99,,2013-07-21 15:11:00,
2013-07-21 08:22:00,76.0,62.0,29.41,North,-999,0.0,0.0,62,0.00,,,-99.99,,2013-07-21 15:22:00,
2013-07-21 08:32:00,76.0,62.0,29.41,North,-999,0.0,0.0,62,0.00,,,-99.99,,2013-07-21 15:32:00,
2013-07-21 08:42:00,76.0,62.0,29.41,North,-999,0.0,0.0,62,0.00,,,-99.99,,2013-07-21 15:42:00,
2013-07-21 08:53:00,76.0,62.0,29.41,North,-999,0.0,0.0,63,0.00,,,-99.99,,2013-07-21 15:53:00,
2013-07-21 09:01:00,76.0,62.0,29.41,North,-999,0.0,0.0,63,0.00,,,-99.99,,2013-07-21 16:01:00,
2013-07-21 09:11:00,76.0,62.0,29.41,North,-999,0.0,0.0,63,0.00,,,-99.99,,2013-07-21 16:11:00,
2013-07-21 09:22:00,78.0,62.0,29.40,North,-999,0.0,0.0,57,0.00,,,-99.99,,2013-07-21 16:22:00,
2013-07-21 09:32:00,78.0,62.0,29.40,North,-999,0.0,0.0,57,0.00,,,-99.99,,2013-07-21 16:32:00,
2013-07-21 09:42:00,78.0,62.0,29.40,North,-999,0.0,0.0,57,0.00,,,-99.99,,2013-07-21 16:42:00,
2013-07-21 09:52:00,78.0,61.0,29.41,North,-999,0.0,0.0,55,0.00,,,-99.99,,2013-07-21 16:52:00,
2013-07-21 10:01:00,78.0,61.0,29.41,North,-999,0.0,0.0,55,0.00,,,-99.99,,2013-07-21 17:01:00,
2013-07-21 10:11:00,78.0,61.0,29.41,North,-999,0.0,0.0,55,0.00,,,-99.99,,2013-07-21 17:11:00,
2013-07-21 10:22:00,77.0,60.0,29.42,North,0,0.0,2.0,56,0.00,,,-99.99,,2013-07-21 17:22:00,
2013-07-21 10:30:00,76.0,57.0,29.45,North,-999,0.0,0.0,52,0.00,,,-99.99,,2013-07-21 17:30:00,
2013-07-21 10:33:00,76.0,60.0,29.43,North,-999,0.0,0.0,57,0.00,,,-99.99,,2013-07-21 17:33:00,
2013-07-21 10:42:00,76.0,60.0,29.43,North,-999,0.0,0.0,57,0.00,,,-99.99,,2013-07-21 17:42:00,
2013-07-21 10:53:00,76.0,57.0,29.45,North,-999,0.0,0.0,52,0.00,,,-99.99,,2013-07-21 17:53:00,
2013-07-21 11:01:00,76.0,57.0,29.45,North,-999,0.0,0.0,52,0.00,,,-99.99,,2013-07-21 18:01:00,
2013-07-21 11:11:00,76.0,57.0,29.45,North,-999,0.0,0.0,52,0.00,,,-99.99,,2013-07-21 18:11:00,
2013-07-21 11:21:00,76.0,57.0,29.45,North,-999,0.0,0.0,52,0.00,,,-99.99,,2013-07-21 18:21:00,
2013-07-21 11:32:00,74.0,59.0,29.46,ENE,70,2.0,3.0,60,0.00,,,-99.99,,2013-07-21 18:32:00,
2013-07-21 12:11:00,74.0,59.0,29.46,ENE,70,2.0,3.0,60,0.00,,,-99.99,,2013-07-21 19:11:00,
2013-07-21 12:22:00,74.0,59.0,29.46,ENE,70,2.0,3.0,60,0.00,,,-99.99,,2013-07-21 19:22:00,
2013-07-21 12:42:00,74.0,60.0,29.46,ENE,60,2.0,4.0,62,0.00,,,-99.99,,2013-07-21 19:42:00,
2013-07-21 12:52:00,74.0,60.0,29.46,ENE,60,2.0,4.0,62,0.00,,,-99.99,,2013-07-21 19:52:00,
2013-07-21 13:11:00,81.0,58.0,29.47,East,80,1.0,1.0,45,0.00,,,-99.99,,2013-07-21 20:11:00,
2013-07-21 13:22:00,80.0,61.0,29.47,North,-999,0.0,0.0,52,0.00,,,-99.99,,2013-07-21 20:22:00,
2013-07-21 13:32:00,80.0,61.0,29.47,North,-999,0.0,0.0,52,0.00,,,-99.99,,2013-07-21 20:32:00,
2013-07-21 13:42:00,80.0,60.0,29.47,North,0,0.0,2.0,50,0.00,,,-99.99,,2013-07-21 20:42:00,
2013-07-21 13:52:00,80.0,59.0,29.47,North,-999,0.0,0.0,49,0.00,,,-99.99,,2013-07-21 20:52:00,
2013-07-21 14:01:00,80.0,59.0,29.47,North,-999,0.0,0.0,49,0.00,,,-99.99,,2013-07-21 21:01:00,
2013-07-21 14:11:00,81.0,58.0,29.48,North,0,0.0,4.0,45,0.00,,,-99.99,,2013-07-21 21:11:00,
2013-07-21 14:22:00,81.0,58.0,29.48,West,260,1.0,1.0,45,0.00,,,-99.99,,2013-07-21 21:22:00,
2013-07-21 14:32:00,81.0,58.0,29.48,West,260,1.0,1.0,45,0.00,,,-99.99,,2013-07-21 21:32:00,
2013-07-21 14:52:00,80.0,59.0,29.48,East,80,1.0,2.0,48,0.00,,,-99.99,,2013-07-21 21:52:00,
2013-07-21 15:01:00,80.0,59.0,29.48,East,80,1.0,2.0,48,0.00,,,-99.99,,2013-07-21 22:01:00,
2013-07-21 15:11:00,80.0,59.0,29.48,East,80,1.0,2.0,48,0.00,,,-99.99,,2013-07-21 22:11:00,
2013-07-21 15:22:00,78.0,59.0,29.48,ENE,70,2.0,5.0,52,0.00,,,-99.99,,2013-07-21 22:22:00,
2013-07-21 15:32:00,78.0,59.0,29.48,ENE,70,2.0,5.0,52,0.00,,,-99.99,,2013-07-21 22:32:00,
2013-07-21 15:42:00,76.0,59.0,29.49,North,0,0.0,4.0,56,0.00,,,-99.99,,2013-07-21 22:42:00,
2013-07-21 15:52:00,77.0,60.0,29.49,North,-999,0.0,0.0,56,0.00,,,-99.99,,2013-07-21 22:52:00,
2013-07-21 16:01:00,77.0,60.0,29.49,North,-999,0.0,0.0,56,0.00,,,-99.99,,2013-07-21 23:01:00,
2013-07-21 16:11:00,77.0,60.0,29.49,North,-999,0.0,0.0,56,0.00,,,-99.99,,2013-07-21 23:11:00,
2013-07-21 16:22:00,76.0,60.0,29.48,North,0,0.0,1.0,58,0.00,,,-99.99,,2013-07-21 23:22:00,
2013-07-21 16:32:00,76.0,60.0,29.48,North,0,0.0,1.0,58,0.00,,,-99.99,,2013-07-21 23:32:00,
2013-07-21 16:42:00,76.0,55.0,29.47,North,0,0.0,3.0,48,0.00,,,-99.99,,2013-07-21 23:42:00,
2013-07-21 16:53:00,76.0,57.0,29.47,North,-999,0.0,0.0,51,0.00,,,-99.99,,2013-07-21 23:53:00,
2013-07-21 17:01:00,76.0,57.0,29.47,North,-999,0.0,0.0,51,0.00,,,-99.99,,2013-07-22 00:01:00,
2013-07-21 17:11:00,76.0,57.0,29.47,North,-999,0.0,0.0,51,0.00,,,-99.99,,2013-07-22 00:11:00,
2013-07-21 17:22:00,75.0,57.0,29.47,WNW,290,1.0,1.0,53,0.00,,,-99.99,,2013-07-22 00:22:00,
2013-07-21 17:32:00,75.0,57.0,29.47,WNW,290,1.0,1.0,53,0.00,,,-99.99,,2013-07-22 00:32:00,
2013-07-21 17:53:00,75.0,59.0,29.47,North,-999,0.0,0.0,58,0.00,,,-99.99,,2013-07-22 00:53:00,
2013-07-21 18:01:00,75.0,59.0,29.47,North,-999,0.0,0.0,58,0.00,,,-99.99,,2013-07-22 01:01:00,
2013-07-21 18:11:00,75.0,59.0,29.47,North,-999,0.0,0.0,58,0.00,,,-99.99,,2013-07-22 01:11:00,
2013-07-21 18:21:00,73.0,59.0,29.47,North,-999,0.0,0.0,62,0.00,,,-99.99,,2013-07-22 01:21:00,
2013-07-21 18:32:00,73.0,59.0,29.47,North,-999,0.0,0.0,62,0.00,,,-99.99,,2013-07-22 01:32:00,
2013-07-21 18:42:00,72.0,59.0,29.48,North,0,0.0,3.0,63,0.00,,,-99.99,,2013-07-22 01:42:00,
2013-07-21 18:52:00,72.0,59.0,29.49,North,-999,0.0,0.0,64,0.00,,,-99.99,,2013-07-22 01:52:00,
2013-07-21 19:01:00,72.0,59.0,29.49,North,-999,0.0,0.0,64,0.00,,,-99.99,,2013-07-22 02:01:00,
2013-07-21 19:11:00,72.0,59.0,29.49,North,-999,0.0,0.0,64,0.00,,,-99.99,,2013-07-22 02:11:00,
2013-07-21 19:22:00,72.0,58.0,29.49,North,0,0.0,1.0,62,0.00,,,-99.99,,2013-07-22 02:22:00,
2013-07-21 19:32:00,71.0,57.0,29.49,North,0,0.0,1.0,62,0.00,,,-99.99,,2013-07-22 02:32:00,
2013-07-21 19:43:00,71.0,58.0,29.50,North,0,0.0,1.0,63,0.00,,,-99.99,,2013-07-22 02:43:00,
2013-07-21 19:52:00,70.0,57.0,29.50,North,-999,0.0,0.0,64,0.00,,,-99.99,,2013-07-22 02:52:00,
2013-07-21 20:01:00,70.0,57.0,29.50,North,-999,0.0,0.0,64,0.00,,,-99.99,,2013-07-22 03:01:00,
2013-07-21 20:11:00,69.0,58.0,29.51,North,0,0.0,1.0,69,0.00,,,-99.99,,2013-07-22 03:11:00,
2013-07-21 20:22:00,68.0,59.0,29.51,North,-999,0.0,0.0,74,0.00,,,-99.99,,2013-07-22 03:22:00,
2013-07-21 20:33:00,68.0,59.0,29.51,North,-999,0.0,0.0,74,0.00,,,-99.99,,2013-07-22 03:33:00,
2013-07-21 20:53:00,67.0,60.0,29.51,North,-999,0.0,0.0,79,0.00,,,-99.99,,2013-07-22 03:53:00,
2013-07-21 21:01:00,67.0,60.0,29.51,North,-999,0.0,0.0,79,0.00,,,-99.99,,2013-07-22 04:01:00,
2013-07-21 21:12:00,67.0,60.0,29.51,North,-999,0.0,0.0,79,0.00,,,-99.99,,2013-07-22 04:12:00,
2013-07-21 21:22:00,67.0,60.0,29.51,North,0,0.0,1.0,78,0.00,,,-99.99,,2013-07-22 04:22:00,
2013-07-21 21:33:00,67.0,61.0,29.52,North,-999,0.0,0.0,80,0.00,,,-99.99,,2013-07-22 04:33:00,
2013-07-21 21:43:00,66.0,60.0,29.52,North,0,0.0,2.0,81,0.00,,,-99.99,,2013-07-22 04:43:00,
2013-07-21 22:01:00,65.0,59.0,29.53,North,-999,0.0,0.0,81,0.00,,,-99.99,,2013-07-22 05:01:00,
2013-07-21 22:11:00,65.0,59.0,29.53,North,-999,0.0,0.0,81,0.00,,,-99.99,,2013-07-22 05:11:00,
2013-07-21 22:22:00,66.0,57.0,29.54,North,-999,0.0,0.0,74,0.00,,,-99.99,,2013-07-22 05:22:00,
2013-07-21 22:32:00,66.0,57.0,29.54,North,-999,0.0,0.0,74,0.00,,,-99.99,,2013-07-22 05:32:00,
2013-07-21 22:42:00,67.0,56.0,29.55,North,0,0.0,1.0,68,0.00,,,-99.99,,2013-07-22 05:42:00,
2013-07-21 22:52:00,67.0,55.0,29.56,North,-999,0.0,0.0,66,0.00,,,-99.99,,2013-07-22 05:52:00,
2013-07-21 23:01:00,67.0,55.0,29.56,North,-999,0.0,0.0,66,0.00,,,-99.99,,2013-07-22 06:01:00,
2013-07-21 23:11:00,67.0,55.0,29.56,North,-999,0.0,0.0,66,0.00,,,-99.99,,2013-07-22 06:11:00,
2013-07-21 23:22:00,67.0,54.0,29.57,North,0,0.0,1.0,63,0.00,,,-99.99,,2013-07-22 06:22:00,
2013-07-21 23:32:00,68.0,54.0,29.57,North,-999,0.0,0.0,61,0.00,,,-99.99,,2013-07-22 06:32:00,
2013-07-21 23:52:00,68.0,54.0,29.59,North,-999,0.0,0.0,62,0.00,,,-99.99,,2013-07-22 06:52:00,